EW1689 Weather Reports


Display with metric or nautical units.
time (UTC)temp
F
wind
direction
speed
MPH
gust
MPH
rain 1hr
in
rain 24hr
in
rain mn
in
humidity
%
barometer
mb
20260505171036 67 0 3.0 8.0 0.00 0.00 0.00 57 1011.1
20260505170016 66 0 4.0 8.0 0.00 0.00 0.00 56 1010.9
20260505165016 67 0 2.0 10.0 0.00 0.00 0.00 56 1011.0
20260505164016 67 0 2.0 5.0 0.00 0.00 0.00 56 1011.0
20260505163016 67 0 2.0 7.0 0.00 0.00 0.00 56 1011.0
20260505162037 67 0 2.0 8.0 0.00 0.00 0.00 57 1011.0
20260505161036 66 0 2.0 5.0 0.00 0.00 0.00 60 1011.0
20260505153016 63 0 2.0 6.0 0.00 0.00 0.00 72 1010.8
20260505152015 63 0 3.0 6.0 0.00 0.00 0.00 74 1010.7
20260505151016 63 0 2.0 5.0 0.00 0.00 0.00 75 1010.4
20260505125017 61 0 1.0 4.0 0.00 0.00 0.00 73 1010.0
20260505124017 61 0 2.0 4.0 0.00 0.00 0.00 73 1010.0
20260505123017 61 0 2.0 6.0 0.00 0.00 0.00 73 1009.8
20260505122037 61 0 1.0 3.0 0.00 0.00 0.00 73 1009.8
20260505121017 61 0 1.0 2.0 0.00 0.00 0.00 73 1009.8
20260505120017 61 0.0 2.0 0.00 0.00 0.00 73 1009.8
20260505115037 61 0 1.0 3.0 0.00 0.00 0.00 72 1009.7
20260505114037 62 0 1.0 3.0 0.00 0.00 0.00 71 1009.8
20260505113017 62 0 1.0 3.0 0.00 0.00 0.00 71 1009.8
20260505112017 62 0 2.0 4.0 0.00 0.00 0.00 69 1009.9
20260505111017 62 0 2.0 5.0 0.00 0.00 0.00 69 1009.9
20260505102037 62 0 1.0 4.0 0.00 0.00 0.00 70 1010.7
20260505101017 62 0 2.0 6.0 0.00 0.00 0.00 70 1010.8
20260505100037 62 0 1.0 4.0 0.00 0.00 0.00 69 1010.9
20260505095017 62 0 2.0 3.0 0.00 0.00 0.00 69 1011.0
20260505094037 62 0 1.0 3.0 0.00 0.00 0.00 69 1011.2
20260505093017 62 0 2.0 5.0 0.00 0.00 0.00 69 1011.3
20260505092057 62 0 2.0 5.0 0.00 0.00 0.00 68 1011.2
20260505091016 63 0 3.0 6.0 0.00 0.00 0.00 67 1011.4
20260505090016 63 0 3.0 7.0 0.00 0.00 0.00 64 1011.5
20260505085017 64 0 3.0 6.0 0.00 0.00 0.00 59 1011.7
20260505084017 65 0 3.0 6.0 0.00 0.00 0.00 56 1011.3
20260505083018 66 0 3.0 6.0 0.00 0.00 0.00 49 1011.4
20260505082016 66 0 4.0 10.0 0.00 0.00 0.00 47 1011.5
20260505081037 67 0 4.0 10.0 0.00 0.00 0.00 47 1011.7
20260505080017 67 0 4.0 7.0 0.00 0.00 0.00 46 1011.9
20260505075016 67 0 4.0 8.0 0.00 0.00 0.00 45 1011.8
20260505074018 67 0 3.0 6.0 0.00 0.00 0.00 44 1011.5
20260505073017 67 0 2.0 5.0 0.00 0.00 0.00 44 1011.6
20260505072017 68 0 3.0 7.0 0.00 0.00 0.00 42 1011.8
20260505071017 68 0 2.0 6.0 0.00 0.00 0.00 38 1011.6
20260505070016 69 0 4.0 9.0 0.00 0.00 0.00 35 1011.4
20260505065016 69 0 4.0 8.0 0.00 0.00 0.00 34 1011.5
20260505064016 69 0 3.0 5.0 0.00 0.00 0.00 31 1011.2
20260505063016 69 0 4.0 10.0 0.00 0.00 0.00 31 1011.2
20260505062056 69 0 3.0 7.0 0.00 0.00 0.00 32 1011.0
20260505061016 69 0 2.0 5.0 0.00 0.00 0.00 32 1010.7
20260505060016 69 0 3.0 7.0 0.00 0.00 0.00 33 1010.6
20260505055016 70 0 4.0 7.0 0.00 0.00 0.00 36 1010.8
20260505054017 70 0 1.0 3.0 0.00 0.00 0.00 46 1011.1
20260505053036 70 0.0 1.0 0.00 0.00 0.00 46 1011.1
20260505052016 70 0.0 2.0 0.00 0.00 0.00 46 1011.2
20260505051017 70 0.0 2.0 0.00 0.00 0.00 46 1011.4
20260505041036 70 0 1.0 3.0 0.00 0.00 0.00 45 1011.0
20260505040016 70 0.0 2.0 0.00 0.00 0.00 44 1010.9
20260505035016 70 0.0 2.0 0.00 0.00 0.00 44 1010.7
20260505034015 70 0.0 1.0 0.00 0.00 0.00 43 1010.4
20260505033016 71 0.0 2.0 0.00 0.00 0.00 42 1010.4
20260505032036 71 0 1.0 3.0 0.00 0.00 0.00 42 1010.2
20260505031056 71 0.0 1.0 0.00 0.00 0.00 41 1010.0
20260505030017 71 0 1.0 3.0 0.00 0.00 0.00 41 1010.1
20260505025017 71 0.0 1.0 0.00 0.00 0.00 41 1010.1
20260505024038 72 0.0 1.0 0.00 0.00 0.00 40 1010.1
20260505023017 72 0.0 2.0 0.00 0.00 0.00 40 1010.1
20260505022017 72 0 1.0 4.0 0.00 0.00 0.00 39 1009.9
20260505021058 72 0 1.0 4.0 0.00 0.00 0.00 39 1009.9
20260505020017 73 0 1.0 3.0 0.00 0.00 0.00 39 1009.9
20260505015040 73 0 1.0 5.0 0.00 0.00 0.00 38 1009.7
20260505014018 73 0.0 3.0 0.00 0.00 0.00 37 1009.5
20260505013017 74 0 1.0 4.0 0.00 0.00 0.00 37 1009.7
20260505012017 74 0.0 0.0 0.00 0.00 0.00 37 1009.6
20260505011017 74 0.0 2.0 0.00 0.00 0.00 37 1009.8
20260505010017 74 0.0 1.0 0.00 0.00 0.00 38 1009.9
20260505005017 74 0 1.0 3.0 0.00 0.00 0.00 37 1010.0
20260505004018 75 0.0 1.0 0.00 0.00 0.00 37 1010.1
20260505003057 74 0.0 2.0 0.00 0.00 0.00 38 1010.3
20260505002019 75 0 1.0 5.0 0.00 0.00 0.00 37 1010.2
20260505001017 75 0 2.0 5.0 0.00 0.00 0.00 36 1010.4
20260505000017 75 0 1.0 4.0 0.00 0.00 0.00 37 1010.3
20260504235017 75 0 1.0 3.0 0.00 0.00 0.00 37 1010.2
20260504234017 76 0 1.0 4.0 0.00 0.00 0.00 36 1010.3
20260504233017 76 0 1.0 2.0 0.00 0.00 0.00 37 1010.1
20260504232017 76 0 1.0 3.0 0.00 0.00 0.00 37 1010.2
20260504231037 76 0 3.0 7.0 0.00 0.00 0.00 34 1010.3
20260504230017 76 0 1.0 2.0 0.00 0.00 0.00 36 1010.2
20260504225017 76 0 2.0 6.0 0.00 0.00 0.00 34 1010.3
20260504224037 76 0 1.0 4.0 0.00 0.00 0.00 35 1010.6
20260504223017 77 0 1.0 3.0 0.00 0.00 0.00 34 1010.5
20260504222017 77 0 1.0 4.0 0.00 0.00 0.00 35 1010.6
20260504221037 76 0 1.0 3.0 0.00 0.00 0.00 37 1011.0
20260504220017 76 0 1.0 3.0 0.00 0.00 0.00 37 1010.8
20260504215017 76 0 2.0 7.0 0.00 0.00 0.00 36 1011.1
20260504214017 76 0 1.0 3.0 0.00 0.00 0.00 36 1011.1
20260504213017 76 0 1.0 4.0 0.00 0.00 0.00 37 1011.4
20260504212016 77 0 1.0 4.0 0.00 0.00 0.00 35 1011.9
20260504211016 77 0 1.0 2.0 0.00 0.00 0.00 36 1011.7
20260504210018 77 0 1.0 5.0 0.00 0.00 0.00 37 1011.6
20260504205016 78 0 2.0 8.0 0.00 0.00 0.00 36 1011.6
20260504204017 77 0 2.0 7.0 0.00 0.00 0.00 37 1011.7
20260504203016 76 0 1.0 6.0 0.00 0.00 0.00 38 1011.6
20260504202016 74 0 3.0 8.0 0.00 0.00 0.00 40 1011.5
20260504201017 74 0 3.0 8.0 0.00 0.00 0.00 39 1011.1
20260504200017 75 0 3.0 8.0 0.00 0.00 0.00 37 1011.4
20260504195016 76 0 2.0 7.0 0.00 0.00 0.00 40 1011.7
20260504194017 76 0 1.0 3.0 0.00 0.00 0.00 41 1011.9
20260504193017 75 0 1.0 4.0 0.00 0.00 0.00 40 1011.9
20260504192016 75 0 2.0 5.0 0.00 0.00 0.00 40 1011.8
20260504191017 74 0 1.0 4.0 0.00 0.00 0.00 42 1011.3
20260504190016 73 0 1.0 4.0 0.00 0.00 0.00 43 1011.1
20260504185016 73 0 2.0 6.0 0.00 0.00 0.00 40 1011.3
20260504184036 74 0 2.0 5.0 0.00 0.00 0.00 40 1011.6
20260504183016 74 0 2.0 6.0 0.00 0.00 0.00 40 1012.0
20260504182016 74 0 2.0 6.0 0.00 0.00 0.00 38 1012.2
20260504181016 74 0 4.0 9.0 0.00 0.00 0.00 35 1012.0
20260504180016 73 0 5.0 9.0 0.00 0.00 0.00 33 1011.4
20260504175016 73 0 4.0 11.0 0.00 0.00 0.00 34 1011.1
20260504174016 72 0 4.0 7.0 0.00 0.00 0.00 33 1011.3
20260504173016 72 0 5.0 10.0 0.00 0.00 0.00 33 1011.6
20260504172036 72 0 5.0 10.0 0.00 0.00 0.00 33 1011.6